Tracking 35274 objects as of 11-Sep-2026
HD Live streaming from Space Station
objects crossing your sky now

KIKU 1 (ETS 1)

Track KIKU 1 (ETS 1) now!
10-day predictions
KIKU 1 (ETS 1) is classified as:


NORAD ID: 8197
Int'l Code: 1975-082A
Launch date: September 9, 1975
Source: Japan (JPN)
Launch site: TANEGASHIMA SPACE CENTER (TNSTA)
Your satellite tracking list
Your tracking list is empty




NASA's NSSDC Master Catalog

Two Line Element Set (TLE):
1 08197U 75082A   26254.01077571 -.00000114  00000-0  17767-4 0  9993
2 08197  46.9875 258.0092 0085193  49.9409 337.1057 13.59605133534096
Source of the keplerian elements: AFSPC